Location: Newark
(39.6889°N, 28.1522°E)
Time: 15:12:21
(UTC+00:00)

KKS-1 - Visible Passes

Search period start: 09 December 2019 00:00
Search period end: 19 December 2019 00:00
Orbit: 637 x 650 km, 98.3° (Epoch: 08 December)

Date Brightness Start Highest point End Pass type
(mag) Time Alt. Az. Time Alt. Az. Time Alt. Az.
09 Dec ? 03:42:50 10° E 03:45:25 15° ENE 03:48:00 10° NNE visible
10 Dec ? 04:06:01 10° SE 04:09:41 27° ENE 04:13:24 10° NNE visible
11 Dec ? 04:29:50 10° SE 04:34:04 48° ENE 04:38:19 10° N visible
13 Dec ? 03:44:18 10° E 03:46:56 16° ENE 03:49:35 10° NNE visible
14 Dec ? 04:07:30 10° SE 04:11:13 27° ENE 04:14:57 10° N visible
15 Dec ? 04:31:21 10° SSE 04:35:35 49° ENE 04:39:53 10° N visible
17 Dec ? 03:45:46 10° ESE 03:48:28 16° ENE 03:51:10 10° NNE visible
18 Dec ? 04:09:01 10° SE 04:12:44 28° ENE 04:16:31 10° N visible
